Wind_Speed
20 21 22 23 25 26 26 27 28 28 28 28 28 28 29 31 34 37 40 40 41 42 38 37 36 38 34 34 31 31 33 32 31 30 30 29 29 27 35 37 39 37 32
19 20 20 21 23 25 26 27 28 28 29 30 30 30 29 29 32 35 37 40 42 44 44 40 38 37 38 35 35 34 35 35 33 32 31 31 31 29 32 39 43 40 35
18 19 21 22 24 25 26 27 27 27 27 29 30 29 29 30 29 29 33 36 39 43 45 45 41 39 39 38 37 37 37 37 36 35 34 33 32 32 33 36 40 42 38
17 18 20 21 23 25 25 26 26 27 27 26 27 28 29 27 27 27 26 29 33 37 42 45 44 41 39 37 38 38 37 38 39 37 38 36 34 33 34 33 36 41 39
17 18 19 21 22 24 25 25 25 25 27 27 28 27 24 21 17 16 16 18 22 28 34 40 44 45 43 40 36 39 40 39 41 40 39 38 37 36 37 35 38 41 40
18 18 19 20 22 24 24 24 24 22 23 25 28 24 16 10 8 8 15 11 14 16 21 29 37 43 46 43 37 37 41 41 42 41 40 41 40 39 38 40 38 39 40
17 18 19 21 23 24 24 24 23 23 22 25 27 28 12 9 1 18 12 11 12 14 14 16 23 30 39 44 41 37 39 41 43 43 45 44 43 42 40 44 43 41 42
17 18 18 19 20 22 23 22 22 24 23 21 22 17 13 7 10 9 14 10 15 15 15 16 18 20 29 29 35 40 37 39 40 43 45 45 43 44 43 46 47 46 44
18 19 19 18 19 20 22 22 21 21 22 19 14 11 9 7 32 6 14 13 17 17 17 16 17 19 21 28 36 39 37 34 38 43 44 45 43 44 44 46 49 49 48
15 16 16 16 17 19 21 21 20 19 20 20 14 14 10 12 10 15 15 24 19 22 18 16 17 18 22 24 27 29 31 29 29 32 38 46 47 44 45 48 50 51 51
14 14 14 14 15 16 19 20 20 18 17 17 19 18 16 14 3 18 20 33 31 23 16 19 17 15 14 21 22 25 25 28 32 30 32 41 49 49 58 47 49 48 51
12 12 14 14 15 15 17 18 20 20 18 17 17 16 15 14 17 15 23 30 28 25 25 14 15 14 11 11 16 24 28 26 32 33 32 35 41 48 51 51 45 43 46
11 12 14 15 15 15 16 16 17 17 19 20 21 19 17 15 16 16 19 23 25 26 14 12 11 14 10 11 13 17 26 29 30 33 32 34 36 38 47 45 31 34 39
12 13 14 15 15 16 16 17 16 17 17 17 18 19 20 18 18 16 17 20 25 15 14 17 18 10 15 15 15 19 23 31 31 33 33 32 33 36 40 44 41 42 41
10 11 13 14 15 15 16 16 17 17 17 18 18 18 19 20 20 18 17 15 13 17 24 14 27 25 18 14 13 15 20 26 29 29 33 33 33 33 39 41 44 51 47
10 11 12 13 14 14 15 16 18 18 17 17 17 18 18 19 20 22 20 19 14 12 13 21 24 25 17 16 15 14 17 20 24 28 28 33 33 38 36 39 39 40 52
10 11 12 12 13 14 15 16 18 19 19 18 18 19 21 20 20 22 22 22 19 18 18 22 22 24 15 14 11 10 12 11 12 21 21 27 31 34 35 37 37 33 45
10 11 11 12 12 14 15 17 19 20 20 20 20 20 22 22 21 22 23 23 23 21 21 21 21 26 19 15 9 9 8 7 3 13 18 19 22 29 36 38 33 40 39
10 11 11 11 13 15 16 18 20 20 20 20 20 21 22 23 24 24 24 24 23 23 23 19 20 23 22 17 8 6 6 5 3 10 6 14 19 26 31 36 39 43 45
9 10 11 12 13 15 17 19 21 21 21 21 21 21 22 24 25 24 24 26 25 23 23 24 23 23 26 23 13 11 16 12 7 8 15 12 7 15 18 30 35 38 40
8 9 11 12 12 15 17 18 20 21 21 21 22 22 22 23 23 24 24 25 25 26 26 24 26 26 30 30 26 16 10 8 14 14 16 14 14 12 14 12 18 29 39
7 8 9 12 13 14 15 18 19 19 20 21 22 22 22 22 23 22 21 21 23 25 26 27 27 30 30 26 23 22 16 5 8 18 20 20 18 20 17 20 15 9 12
6 6 8 10 13 13 14 15 16 18 19 21 22 22 22 22 22 21 21 21 22 22 24 24 25 27 27 24 19 16 17 16 17 13 15 20 24 22 19 20 19 16 11
5 5 7 8 10 12 14 13 15 17 19 20 22 22 22 22 22 22 21 21 22 23 23 22 21 21 22 20 15 12 10 11 11 9 8 17 18 21 19 20 19 19 18
3 4 5 6 8 10 12 13 13 14 17 19 19 19 20 21 22 21 20 21 20 21 20 19 17 17 17 18 16 9 9 5 9 16 11 12 15 11 17 21 20 18 15
1 3 5 6 7 8 11 13 14 13 14 15 17 17 20 20 21 21 22 22 22 22 19 17 17 17 18 19 21 22 20 20 17 8 20 15 14 14 7 15 18 18 18
Wind_Direction
332 331 329 327 326 323 320 317 314 310 306 302 297 289 281 273 267 262 259 253 251 252 249 246 245 243 242 240 238 236 236 237 237 234 234 234 234 235 226 222 216 207 206
332 331 330 329 327 325 324 321 318 315 311 307 303 298 291 282 274 267 262 256 249 248 249 247 244 243 240 239 238 236 235 236 237 235 235 234 236 231 227 227 221 209 208
335 335 334 333 331 329 327 324 322 320 316 312 308 304 300 296 290 277 270 265 255 247 246 246 243 243 243 237 237 235 235 236 236 235 234 234 236 234 226 229 225 210 211
333 334 334 333 333 331 330 328 329 328 324 321 317 314 313 308 299 291 280 270 262 254 246 243 242 240 242 241 236 235 235 235 234 234 233 232 233 234 226 225 219 214 210
334 336 337 338 339 338 336 335 338 337 332 330 331 328 325 311 303 300 299 284 272 260 253 246 240 238 238 241 238 235 234 236 234 234 233 232 231 229 224 220 217 217 215
336 338 340 343 345 345 343 341 341 345 339 336 338 339 331 322 310 334 333 317 311 282 266 255 246 238 235 239 239 236 235 234 235 233 235 234 232 229 224 220 218 218 212
337 338 342 345 348 350 351 348 345 347 352 347 349 346 351 345 136 327 316 321 314 323 301 279 260 251 240 236 239 237 237 236 235 234 232 233 230 229 226 220 217 214 214
337 337 340 343 348 352 354 355 352 351 359 357 355 357 347 3 322 360 346 339 322 314 314 301 276 265 252 242 240 237 236 238 236 234 231 232 232 227 226 222 219 218 219
340 340 343 345 350 358 2 2 0 359 355 358 24 12 339 327 328 302 338 330 335 329 312 303 293 277 262 250 244 242 239 239 240 234 232 232 234 229 228 227 222 221 221
338 339 342 344 351 2 7 9 7 5 6 359 4 355 341 319 323 316 314 334 314 326 318 313 306 289 272 265 252 252 244 243 239 242 237 233 232 232 226 229 226 224 223
342 347 352 357 358 3 10 13 13 7 4 0 359 351 342 343 294 317 315 321 327 331 321 308 316 307 290 271 269 253 253 244 243 238 238 238 234 228 232 226 227 227 226
353 360 4 5 6 6 7 11 15 16 15 11 6 1 356 352 322 323 312 317 320 330 332 328 315 317 308 304 268 255 255 253 242 241 237 239 241 231 231 225 225 227 231
2 6 10 11 14 13 12 11 10 14 16 16 15 16 12 2 336 326 320 320 319 325 336 351 340 334 321 283 267 254 251 255 249 246 241 235 238 237 236 235 235 230 239
12 14 14 14 15 16 18 18 15 12 12 11 12 15 16 11 4 349 331 330 333 322 334 330 341 327 307 290 291 264 253 249 248 250 246 240 233 231 234 240 234 223 255
16 16 16 16 16 16 18 20 21 19 16 11 11 12 12 15 15 8 358 348 340 322 328 332 337 344 345 325 318 304 275 261 250 248 249 247 239 228 225 227 232 230 235
21 19 19 20 19 20 21 23 25 24 19 16 16 17 16 15 19 20 15 6 356 330 305 324 333 328 329 322 317 302 288 278 259 245 252 249 245 234 228 225 230 240 224
26 25 25 24 24 25 26 25 27 27 23 22 21 20 22 20 20 20 23 17 7 355 332 344 338 349 337 318 312 301 295 290 275 253 253 246 245 239 231 230 231 230 221
30 29 28 27 28 30 31 29 29 27 23 23 24 24 25 25 25 24 22 19 16 9 356 348 352 4 6 354 338 333 311 304 346 240 241 251 247 238 234 232 224 217 223
33 32 31 31 34 36 35 33 31 28 25 25 24 23 26 25 25 26 25 22 17 17 13 9 360 11 17 9 6 27 358 332 61 90 170 224 236 240 233 228 226 224 226
38 37 35 34 37 41 38 36 32 30 28 27 27 26 25 25 24 24 22 23 22 21 18 18 16 17 24 27 21 42 52 34 50 87 90 95 134 223 220 222 221 221 226
47 43 39 38 39 41 40 38 34 32 32 33 32 29 29 28 25 22 22 20 19 22 23 21 20 17 25 27 25 11 10 32 50 75 70 74 85 105 95 121 186 214 226
48 46 43 43 43 45 42 39 36 33 33 34 35 33 31 28 27 23 25 22 17 20 26 24 21 18 19 28 30 28 19 34 39 54 67 64 69 84 79 74 91 103 195
48 45 46 44 40 39 38 36 34 33 32 31 35 34 32 32 29 25 25 24 23 24 27 28 25 23 17 14 23 37 46 51 58 61 58 53 55 65 67 71 74 79 88
53 47 47 45 40 43 20 30 32 32 32 30 30 27 30 29 29 27 26 26 26 24 26 28 31 29 28 27 15 27 44 69 56 52 42 49 48 45 56 59 71 73 72
58 48 48 46 41 37 24 26 30 29 26 28 29 32 29 28 25 25 28 35 35 32 30 28 30 33 31 37 41 45 49 45 58 46 39 26 7 3 20 34 46 59 68
70 39 46 46 42 38 31 15 29 24 21 24 23 25 27 28 22 21 22 27 28 31 30 30 31 30 32 38 39 43 41 47 45 46 31 35 23 23 19 358 27 36 47
Height
1518 1515 1512 1509 1505 1502 1498 1495 1491 1487 1484 1482 1479 1477 1475 1473 1471 1471 1471 1474 1475 1476 1478 1480 1483 1485 1486 1489 1491 1494 1497 1499 1502 1504 1506 1509 1511 1514 1517 1521 1523 1527 1530
1518 1515 1512 1508 1504 1500 1496 1492 1487 1483 1479 1475 1472 1468 1467 1465 1464 1462 1461 1462 1464 1466 1468 1471 1473 1476 1478 1481 1482 1485 1488 1491 1495 1497 1500 1503 1506 1508 1511 1515 1517 1521 1526
1516 1513 1509 1506 1501 1497 1492 1489 1484 1479 1474 1469 1465 1462 1458 1457 1455 1454 1452 1451 1453 1455 1457 1461 1465 1467 1469 1471 1474 1476 1480 1483 1486 1489 1492 1495 1499 1502 1505 1508 1510 1516 1520
1515 1512 1509 1505 1500 1495 1489 1485 1481 1475 1469 1464 1460 1456 1453 1450 1446 1444 1444 1443 1443 1445 1447 1450 1454 1458 1460 1462 1465 1468 1470 1474 1478 1481 1484 1487 1490 1495 1498 1501 1506 1511 1515
1513 1510 1506 1502 1498 1492 1487 1482 1477 1471 1465 1460 1456 1452 1448 1443 1440 1439 1438 1436 1435 1435 1437 1439 1442 1447 1451 1453 1456 1459 1462 1465 1469 1472 1476 1479 1483 1487 1491 1496 1500 1505 1509
1510 1507 1504 1500 1495 1490 1485 1479 1474 1470 1464 1458 1453 1448 1443 1439 1438 1437 1436 1435 1432 1430 1430 1431 1432 1435 1441 1444 1448 1450 1453 1457 1460 1464 1466 1472 1476 1481 1484 1489 1494 1499 1504
1507 1504 1501 1498 1494 1488 1482 1477 1471 1467 1463 1455 1450 1446 1441 1438 1436 1435 1434 1433 1432 1430 1427 1427 1425 1427 1431 1435 1439 1442 1445 1448 1451 1455 1458 1464 1467 1472 1477 1481 1487 1492 1498
1505 1503 1499 1496 1492 1488 1482 1475 1469 1465 1461 1457 1451 1446 1441 1438 1436 1431 1433 1432 1430 1428 1425 1424 1422 1421 1423 1425 1428 1431 1435 1438 1442 1445 1449 1454 1458 1463 1468 1473 1478 1484 1490
1504 1501 1498 1495 1492 1486 1480 1474 1469 1465 1461 1458 1456 1451 1447 1442 1435 1431 1430 1431 1427 1424 1421 1421 1419 1419 1418 1419 1421 1423 1427 1431 1433 1436 1440 1445 1449 1453 1459 1465 1470 1474 1480
1502 1500 1497 1494 1491 1485 1480 1474 1470 1467 1462 1458 1456 1452 1451 1448 1442 1430 1427 1426 1423 1420 1419 1417 1415 1414 1414 1414 1415 1417 1419 1422 1425 1428 1430 1435 1434 1441 1447 1455 1460 1465 1471
1501 1498 1496 1492 1489 1485 1480 1475 1471 1467 1463 1459 1454 1451 1449 1446 1445 1440 1427 1421 1419 1417 1415 1413 1411 1410 1409 1410 1411 1413 1414 1415 1417 1419 1421 1424 1425 1429 1422 1442 1451 1457 1464
1499 1497 1494 1491 1487 1484 1480 1475 1472 1468 1464 1460 1455 1451 1448 1445 1443 1440 1432 1425 1418 1412 1409 1408 1408 1406 1406 1406 1406 1406 1407 1407 1408 1410 1412 1413 1414 1419 1410 1433 1440 1448 1457
1498 1496 1493 1490 1486 1483 1480 1476 1472 1469 1465 1461 1456 1451 1448 1445 1442 1438 1433 1426 1419 1409 1407 1404 1406 1403 1401 1398 1397 1398 1398 1399 1400 1401 1403 1403 1404 1408 1418 1410 1427 1438 1448
1497 1494 1492 1489 1486 1483 1479 1476 1472 1469 1465 1461 1457 1453 1448 1444 1440 1437 1433 1427 1417 1412 1407 1403 1402 1399 1395 1393 1392 1389 1390 1389 1393 1395 1396 1398 1401 1405 1407 1415 1420 1429 1435
1496 1494 1491 1489 1486 1483 1479 1477 1472 1468 1465 1461 1457 1453 1449 1445 1441 1437 1432 1428 1424 1417 1408 1404 1399 1395 1392 1389 1386 1385 1382 1382 1385 1389 1391 1392 1396 1401 1405 1409 1414 1421 1425
1495 1493 1491 1489 1486 1483 1480 1477 1472 1468 1466 1462 1458 1454 1450 1446 1442 1437 1432 1428 1424 1420 1414 1405 1399 1393 1389 1387 1385 1382 1379 1378 1378 1382 1384 1384 1387 1391 1394 1400 1406 1411 1416
1494 1492 1491 1489 1486 1483 1480 1477 1473 1469 1466 1463 1459 1455 1451 1446 1442 1438 1433 1429 1423 1419 1413 1404 1400 1393 1388 1385 1383 1380 1377 1375 1373 1374 1376 1377 1379 1383 1387 1391 1397 1402 1408
1493 1492 1491 1489 1486 1483 1480 1477 1473 1469 1466 1463 1460 1456 1452 1447 1443 1439 1434 1429 1424 1419 1412 1404 1400 1392 1388 1384 1381 1379 1376 1374 1370 1369 1370 1372 1374 1377 1381 1386 1391 1397 1401
1493 1491 1490 1489 1486 1483 1480 1476 1473 1470 1467 1464 1460 1456 1453 1449 1444 1440 1436 1432 1426 1420 1415 1408 1402 1395 1389 1385 1382 1378 1377 1376 1373 1369 1365 1367 1366 1369 1372 1376 1381 1386 1391
1493 1492 1490 1488 1486 1483 1480 1477 1474 1471 1468 1465 1461 1457 1453 1449 1445 1442 1438 1432 1428 1423 1417 1412 1405 1398 1392 1388 1385 1381 1378 1377 1374 1372 1367 1366 1366 1364 1366 1368 1372 1377 1382
1493 1492 1491 1489 1487 1484 1481 1479 1476 1473 1470 1467 1463 1459 1455 1452 1448 1444 1439 1435 1430 1425 1419 1414 1408 1402 1394 1389 1385 1385 1383 1381 1379 1375 1371 1373 1371 1364 1366 1366 1364 1370 1373
1494 1493 1492 1490 1487 1485 1482 1480 1478 1475 1472 1469 1465 1461 1458 1454 1450 1447 1443 1438 1433 1427 1421 1416 1411 1406 1400 1396 1393 1389 1386 1384 1383 1378 1379 1377 1375 1367 1368 1367 1364 1368 1365
1493 1493 1492 1491 1488 1486 1484 1481 1479 1476 1474 1470 1467 1464 1460 1456 1453 1449 1445 1441 1436 1431 1425 1421 1417 1411 1405 1400 1397 1396 1392 1389 1388 1385 1387 1383 1379 1373 1375 1373 1366 1367 1365
1493 1492 1492 1491 1489 1487 1484 1482 1479 1477 1474 1471 1468 1465 1462 1458 1454 1451 1447 1443 1438 1433 1429 1424 1421 1417 1412 1407 1402 1399 1397 1395 1393 1390 1390 1389 1386 1385 1379 1371 1370 1367 1366
1492 1492 1491 1490 1489 1487 1485 1482 1480 1478 1475 1472 1470 1467 1464 1460 1456 1453 1450 1445 1442 1437 1433 1429 1425 1421 1417 1411 1406 1403 1397 1396 1395 1394 1392 1388 1389 1383 1379 1375 1370 1370 1374
1490 1490 1490 1489 1488 1487 1485 1481 1479 1478 1476 1474 1471 1468 1465 1462 1458 1454 1450 1447 1443 1439 1436 1432 1428 1423 1419 1414 1409 1405 1403 1398 1395 1394 1393 1392 1390 1385 1384 1381 1378 1375 1371